Home > Weather > Glendale > Past weeks

Flag for USA Past Weather in Glendale, Arizona, USA — Yesterday and Last 2 Weeks

Now
75 °F

Clear.


Feels Like: 76 °F
Forecast: 62 / 85 °F
Wind: 7 mph from Southwest

Location: Phoenix-Deer Valley Municipal Airport

Current Time: May 24, 2016 at 1:13:24 AM

Latest Report: May 23, 2016 at 11:53 PM


Visibility: 10 mi

Pressure: 29.70 "Hg

Humidity: 17%

Dew Point: 27 °F

Location of GlendaleLocation

Past Weather in Glendale — Graph

°F

Glendale Temperature Yesterday

Maximum temperature yesterday: 86 °F (at 3:53 PM)
Minimum temperature yesterday: 59 °F (at 4:53 AM)
Average temperature yesterday: 76 °F

High & Low Weather Summary for the Past Weeks

 TemperatureHumidityPressure
High100 °F (May 13, 2:53 PM)57% (May 18, 7:53 AM)29.94 "Hg (May 18, 7:53 AM)
Low58 °F (May 9, 5:53 AM)7% (May 12, 3:53 PM)29.60 "Hg (May 20, 3:53 PM)
Average79 °F22%29.78 "Hg
* Reported May 8 10:53 PM — May 23 10:53 PM, Glendale, Weather by CustomWeather, © 2016

Note: Actual official high and low records may vary slightly from our data, if they occured in-between our weather recording intervals... More about our weather records

Advertising

Glendale Weather History for the Previous 24 Hours

Scroll right to see more
 ConditionsComfort  
Time TempWeatherWind HumidityBarometerVisibility
10:53 PM
Mon, May 23
78 °FClear.10 mph15%29.70 "Hg10 mi
9:53 PM78 °FClear.6 mph15%29.70 "Hg10 mi
8:53 PM79 °FClear.5 mph14%29.67 "Hg10 mi
7:53 PM82 °FClear.6 mph12%29.66 "Hg10 mi
6:53 PM84 °FSunny.6 mph11%29.66 "Hg10 mi
5:53 PM84 °FSunny.3 mph12%29.67 "Hg10 mi
4:53 PM85 °FSunny.8 mph12%29.68 "Hg10 mi
3:53 PM86 °FSunny.7 mph11%29.69 "Hg10 mi
2:53 PM84 °FSunny.6 mph11%29.71 "Hg10 mi
1:53 PM83 °FSunny.6 mph12%29.73 "Hg10 mi
12:53 PM84 °FSunny.10 mph12%29.75 "Hg10 mi
11:53 AM80 °FSunny.5 mph13%29.78 "Hg10 mi
10:53 AM78 °FSunny.6 mph15%29.80 "Hg10 mi
9:53 AM76 °FSunny.3 mph16%29.80 "Hg10 mi
8:53 AM73 °FSunny.No wind18%29.80 "Hg10 mi
7:53 AM71 °FSunny.No wind19%29.80 "Hg10 mi
6:53 AM66 °FSunny.6 mph21%29.79 "Hg10 mi
5:53 AM59 °FSunny.No wind25%29.78 "Hg9 mi
4:53 AM59 °FClear.No wind25%29.77 "Hg10 mi
3:53 AM67 °FClear.3 mph18%29.76 "Hg10 mi
2:53 AM68 °FClear.No wind17%29.74 "Hg10 mi
1:53 AM69 °FClear.No wind16%29.75 "Hg10 mi
Weather by CustomWeather, © 2016

See weather overviewHow to use our weather pages